GW5152 Weather Reports


time (UTC)temp
F
wind
direction
speed
knots
gust
knots
rain 1hr
in
rain 24hr
in
rain mn
in
humidity
%
barometer
mb
20260502181730 69 0.0 0.0 0.00 0.00 0.00 49 1013.7
20260502180729 70 0.0 0.0 0.00 0.00 0.00 46 1013.7
20260502163744 75 0.0 0.0 0.00 0.00 0.00 38 1013.8
20260502162726 75 0.0 0.0 0.00 0.00 0.00 38 1013.9
20260502161725 76 0.0 0.0 0.00 0.00 0.00 39 1014.0
20260502160725 76 0.0 0.0 0.00 0.00 0.00 40 1014.1
20260502151723 77 0.0 0.0 0.00 0.00 0.00 44 1014.6
20260502150723 77 0.0 0.0 0.00 0.00 0.00 44 1014.8
20260502130719 76 0.0 0.0 0.00 0.00 0.00 46 1016.4
20260502123718 76 0.0 0.0 0.00 0.00 0.00 45 1016.8
20260502122717 76 0.0 0.0 0.00 0.00 0.00 44 1016.8
20260502121717 76 0.0 0.0 0.00 0.00 0.00 46 1017.0
20260502120717 75 0.0 0.0 0.00 0.00 0.00 45 1017.1
20260502115716 75 0.0 0.0 0.00 0.00 0.00 45 1017.2
20260502114716 75 0.0 0.0 0.00 0.00 0.00 45 1017.3
20260502113716 75 0.0 0.0 0.00 0.00 0.00 46 1017.5
20260502112719 75 0.0 0.0 0.00 0.00 0.00 45 1017.6
20260502111731 74 0.0 0.0 0.00 0.00 0.00 44 1017.6
20260502110715 74 0.0 0.0 0.00 0.00 0.00 44 1017.8
20260502105717 73 0.0 0.0 0.00 0.00 0.00 44 1017.8
20260502103647 71 0.0 0.0 0.00 0.00 0.00 49 1018.0
20260502102647 71 0.0 0.0 0.00 0.00 0.00 50 1018.1
20260502101647 71 0.0 0.0 0.00 0.00 0.00 51 1018.3
20260502100646 70 0.0 0.0 0.00 0.00 0.00 52 1018.5
20260502090644 65 0.0 0.0 0.00 0.00 0.00 53 1019.3
20260502070613 56 0.0 0.0 0.00 0.00 0.00 60 1020.8
20260502065628 56 0.0 0.0 0.00 0.00 0.00 63 1020.9
20260502064627 55 0.0 0.0 0.00 0.00 0.00 63 1021.1
20260502063612 54 0.0 0.0 0.00 0.00 0.00 65 1021.3
20260502062611 53 0.0 0.0 0.00 0.00 0.00 65 1021.2
20260502061611 52 0.0 0.0 0.00 0.00 0.00 66 1021.1
20260502060611 51 0.0 0.0 0.00 0.00 0.00 66 1021.2
20260502055610 51 0.0 0.0 0.00 0.00 0.00 67 1021.3
20260502054610 51 0.0 0.0 0.00 0.00 0.00 67 1021.2
20260502053610 51 0.0 0.0 0.00 0.00 0.00 67 1021.3
20260502052610 49 0.0 0.0 0.00 0.00 0.00 70 1021.2
20260502051610 47 0.0 0.0 0.00 0.00 0.00 72 1021.2
20260502050611 46 0.0 0.0 0.00 0.00 0.00 72 1021.2
20260502045609 46 0.0 0.0 0.00 0.00 0.00 71 1021.3
20260502044622 46 0.0 0.0 0.00 0.00 0.00 72 1021.2
20260502043608 46 0.0 0.0 0.00 0.00 0.00 71 1021.2
20260502042608 46 0.0 0.0 0.00 0.00 0.00 70 1021.4
20260502041608 45 0.0 0.0 0.00 0.00 0.00 71 1021.1
20260502040607 45 0.0 0.0 0.00 0.00 0.00 70 1020.9
20260502035606 46 0.0 0.0 0.00 0.00 0.00 70 1020.9
20260502034607 46 0.0 0.0 0.00 0.00 0.00 70 1021.0
20260502033606 45 0.0 0.0 0.00 0.00 0.00 70 1021.1
20260502032619 46 0.0 0.0 0.00 0.00 0.00 69 1021.1
20260502031605 46 0.0 0.0 0.00 0.00 0.00 69 1021.0
20260502030605 46 0.0 0.0 0.00 0.00 0.00 69 1021.1
20260502025605 46 0.0 0.0 0.00 0.00 0.00 68 1021.2
20260502024605 46 0.0 0.0 0.00 0.00 0.00 68 1021.2
20260502023605 46 0.0 0.0 0.00 0.00 0.00 68 1021.1
20260502022605 46 0.0 0.0 0.00 0.00 0.00 68 1021.1
20260502021604 46 0.0 0.0 0.00 0.00 0.00 68 1021.1
20260502020603 47 0.0 0.0 0.00 0.00 0.00 67 1021.1
20260502015603 47 0.0 0.0 0.00 0.00 0.00 68 1021.2
20260502014603 47 0.0 0.0 0.00 0.00 0.00 67 1021.2
20260502013602 48 0.0 0.0 0.00 0.00 0.00 66 1021.1
20260502012602 48 0.0 0.0 0.00 0.00 0.00 66 1021.1
20260502011601 48 0.0 0.0 0.00 0.00 0.00 65 1021.2
20260502010601 48 0.0 0.0 0.00 0.00 0.00 65 1021.2
20260502005601 48 0.0 0.0 0.00 0.00 0.00 65 1021.3
20260502004600 49 0.0 0.0 0.00 0.00 0.00 64 1021.3
20260502003559 49 0.0 0.0 0.00 0.00 0.00 65 1021.4
20260502002600 49 0.0 0.0 0.00 0.00 0.00 64 1021.4
20260502001559 50 0.0 0.0 0.00 0.00 0.00 64 1021.4
20260502000600 50 0.0 0.0 0.00 0.00 0.00 64 1021.5
20260501235559 50 0.0 0.0 0.00 0.00 0.00 63 1021.5
20260501234613 51 0.0 0.0 0.00 0.00 0.00 63 1021.7
20260501233558 50 0.0 0.0 0.00 0.00 0.00 63 1021.8
20260501232558 51 0.0 0.0 0.00 0.00 0.00 63 1021.7
20260501231612 51 0.0 0.0 0.00 0.00 0.00 63 1021.8
20260501230557 52 0.0 0.0 0.00 0.00 0.00 62 1021.8
20260501225556 52 0.0 0.0 0.00 0.00 0.00 62 1021.8
20260501223530 52 0.0 0.0 0.00 0.00 0.00 61 1021.9
20260501222529 53 0.0 0.0 0.00 0.00 0.00 61 1021.9
20260501221529 53 0.0 0.0 0.00 0.00 0.00 60 1021.9
20260501220529 53 0.0 0.0 0.00 0.00 0.00 60 1021.9
20260501215528 53 0.0 0.0 0.00 0.00 0.00 60 1021.8
20260501214527 54 0.0 0.0 0.00 0.00 0.00 58 1021.9
20260501213527 54 0.0 0.0 0.00 0.00 0.00 58 1021.8
20260501212527 55 0.0 0.0 0.00 0.00 0.00 57 1021.8
20260501211527 55 0.0 0.0 0.00 0.00 0.00 56 1021.9
20260501210526 56 0.0 0.0 0.00 0.00 0.00 56 1021.9
20260501205526 56 0.0 0.0 0.00 0.00 0.00 54 1021.8
20260501204526 57 0.0 0.0 0.00 0.00 0.00 54 1021.8
20260501203525 57 0.0 0.0 0.00 0.00 0.00 54 1021.8
20260501202524 58 0.0 0.0 0.00 0.00 0.00 52 1021.7
20260501201525 58 0.0 0.0 0.00 0.00 0.00 51 1021.7
20260501195457 60 0.0 0.0 0.00 0.00 0.00 49 1021.6
20260501194457 60 0.0 0.0 0.00 0.00 0.00 49 1021.5
20260501193457 61 0.0 0.0 0.00 0.00 0.00 46 1021.4
20260501192457 62 0.0 0.0 0.00 0.00 0.00 44 1021.3
20260501191456 63 0.0 0.0 0.00 0.00 0.00 44 1021.3
20260501190455 63 0.0 0.0 0.00 0.00 0.00 42 1021.1
20260501185455 65 0.0 0.0 0.00 0.00 0.00 40 1021.1
20260501184455 66 0.0 0.0 0.00 0.00 0.00 37 1021.1
20260501183455 67 0.0 0.0 0.00 0.00 0.00 36 1021.0
20260501182458 67 0.0 0.0 0.00 0.00 0.00 36 1021.0